Search your local weather  

 

Hazardous Weather Conditions

No active alerts for NEW YORK, NEW YORK

Current Conditions: NEW YORK, NEW YORK

Overcast


43.0 F

Last Updated on Mar 31 2020, 9:51 pm EDT
Humidity: 74%
Wind Speed: mph
Barometer 29.99 in
Dewpoint: 35.1 F
Visibility: 10.00 mi
Precip: --
Heat Index: NA
Wind Chill: NA
Current conditions at:

New York City, Central Park, NY (KNYC)

Lat: 40.78333 Lon: -73.96667

Local Radar Image active severe weather and emergency alerts image image weather storm and storm spotter reports image weather observation monitoring service image
Local
Radar
Active
Alerts
Storm Reports Weather
Monitoring

5 Day Forecast for NEW YORK, NEW YORK (10001)

Tuesday
Night
Mostly Cloudy

Low 37 °F
Wednesday

Mostly Cloudy

High 54 °F
Wednesday
Night
Partly Cloudy

Low 39 °F
Thursday

Partly Sunny

High 55 °F
Thursday
Night
Slight Chance of Rain
Low 43 °F
Friday

Slight Chance of Rain Showers
High 56 °F
Friday
Night
Mostly Cloudy

Low 43 °F
Saturday

Slight Chance of Rain Showers
High 56 °F
Saturday
Night
Mostly Cloudy

Low 42 °F

Sign-up For Email & Text Message Weather Alert Notification Services


Advertise Here

Observation History for NEW YORK, NEW YORK


Time Wind
(mph)
Vis
(mi)
Weather Precip (in) Temperature (F) Relative
Humidity
Wind
Chill
(F)
Heat
Index
(F)
Pressure
Air Dwpt altimeter
(in)
sea level
(mb)
9:51 pm EDT 10.00 Overcast -- 43.0 35.1 74% NA NA 29.99 1014.7
8:51 pm EDT S 4.6 10.00 Overcast -- 43.0 34.0 71% 40 NA 29.98 1014.3
7:51 pm EDT S 5.8 10.00 Overcast -- 43.0 34.0 71% 39 NA 29.98 1014.3
6:51 pm EDT S 4.6 10.00 Overcast -- 44.0 34.0 68% 41 NA 29.97 1014.0
5:51 pm EDT SE 6.9 10.00 Overcast -- 46.0 35.1 66% 42 NA 29.97 1014.1
4:51 pm EDT 5.8 10.00 Overcast -- 48.0 33.1 56% 45 NA 29.98 1014.3
3:51 pm EDT NE 3.5 10.00 Overcast -- 48.0 34.0 58% NA NA 29.99 1014.8
2:51 pm EDT NE 6.9 10.00 Overcast -- 48.0 34.0 58% 45 NA 30.01 1015.4
1:51 pm EDT NW 3.5 10.00 Overcast -- 47.0 34.0 61% NA NA 30.03 1016.2
12:51 pm EDT 4.6 10.00 Overcast -- 45.0 34.0 66% 43 NA 30.07 1017.4
11:51 am EDT E 8.1 10.00 Overcast -- 44.0 35.1 71% 39 NA 30.06 1017.1
10:51 am EDT NE 9.2 10.00 Overcast -- 42.0 34.0 73% 36 NA 30.08 1017.8
9:51 am EDT NE 9.2 10.00 Overcast -- 42.0 34.0 73% 36 NA 30.09 1018.0
8:51 am EDT NE 10.4 G 16.1 10.00 Overcast -- 41.0 34.0 76% 35 NA 30.08 1017.6
7:51 am EDT NE 10.4 10.00 Overcast -- 41.0 35.1 79% 35 NA 30.07 1017.5
6:51 am EDT NE 9.2 10.00 Overcast -- 41.0 36.0 82% 35 NA 30.06 1017.2
5:51 am EDT NE 11.5 G 17.3 10.00 Overcast -- 42.0 36.0 79% 36 NA 30.03 1016.1
4:51 am EDT 3.5 10.00 Overcast -- 42.0 39.0 89% NA NA 30.01 1015.4
3:51 am EDT 5.8 G 18.4 10.00 Overcast -- 42.0 39.0 89% 38 NA 30.01 1015.3
2:51 am EDT E 6.9 6.00 Fog/Mist 00.01 43.0 41.0 93% 39 NA 30.00 1015.0
1:51 am EDT SE 3.5 3.00 Light Rain Fog/Mist 00.05 44.0 42.1 93% NA NA 30.01 1015.3
12:51 am EDT 3.5 10.00 Light Rain Trace 45.0 41.0 86% NA NA 30.01 1015.5
11:51 pm EDT N 0.0 7.00 Overcast Trace 45.0 43.0 93% NA NA 30.01 1015.3
10:51 pm EDT NE 6.9 8.00 Overcast -- 45.0 42.1 90% 41 NA 30.01 1015.3

Regional Weather Observation

New York, La Guardia Airport, NY (KLGA)

Overcast
43.0 F

Newark, Newark International Airport, NJ (KEWR)

Overcast
43.0 F

New York, Kennedy International Airport, NY (KJFK)

Overcast
42.0 F

Teterboro, Teterboro Airport, NJ (KTEB)

Light Rain
43.0 F

Caldwell, Essex County Airport, NJ (KCDW)

Overcast
44.0 F

Morristown Municipal, NJ (KMMU)

Overcast
43.0 F

Advertise Here

Advertise Here